Wind_Speed
31 32 41 39 40 34 30 30 31 29 21 14 21 26 19 20 22 28 29 27 25 25 26 31 21 22 19 18 19 23 21 19 14 16 13 10 10 14 19 21 21 9 6 8
32 45 35 32 31 33 35 33 31 26 22 20 21 23 21 26 31 26 23 22 22 24 25 31 24 19 17 16 17 20 19 16 14 14 9 10 14 17 17 16 17 15 3 8
44 41 33 32 32 34 35 35 31 29 22 22 23 23 23 30 23 22 22 19 13 20 23 27 22 18 17 15 16 18 16 14 11 12 10 14 17 19 18 15 11 12 6 6
43 33 34 34 36 33 36 30 28 25 22 22 20 21 23 23 22 15 14 16 19 21 24 24 19 18 16 14 15 15 13 12 8 10 13 16 20 16 14 11 9 9 9 6
49 38 37 41 35 34 35 26 27 23 23 24 22 21 27 20 24 15 5 9 18 19 18 18 18 16 14 12 13 14 10 9 7 9 12 19 22 21 12 7 8 7 14 3
35 33 35 39 33 30 30 27 23 19 22 19 23 24 26 25 5 1 6 8 14 15 18 21 19 16 13 11 11 12 9 7 6 8 11 17 18 21 13 11 7 6 6 6
36 38 38 34 36 31 27 29 18 16 16 13 24 27 29 16 10 6 7 3 7 12 19 19 15 12 11 11 10 11 7 6 7 8 10 14 16 18 14 16 11 6 8 6
40 34 43 38 39 38 34 29 24 15 12 18 21 20 8 9 10 10 7 7 7 16 19 17 11 11 10 10 8 10 6 5 8 8 10 12 12 14 17 15 14 11 9 8
39 43 31 40 36 34 33 38 31 27 24 20 13 18 14 12 9 8 9 9 11 15 15 10 10 10 12 8 7 8 5 6 7 6 9 10 9 10 12 14 12 9 7 8
32 30 37 34 35 34 36 32 28 28 17 15 17 20 14 16 7 12 10 7 7 10 11 10 9 11 10 7 7 7 4 5 6 5 8 9 8 7 9 13 16 8 5 7
45 25 29 32 47 38 35 36 33 25 27 12 11 16 16 13 13 8 7 10 3 7 10 8 8 9 7 5 5 5 3 4 4 3 6 7 6 5 7 12 14 14 6 9
53 24 32 39 37 41 37 39 32 22 25 22 20 6 11 13 9 7 15 9 1 5 12 10 8 8 7 5 4 4 2 4 3 3 4 5 5 5 5 10 14 17 17 9
51 46 26 29 37 40 37 37 38 30 20 24 17 18 13 12 13 10 7 13 2 4 14 13 8 9 7 5 3 3 3 2 1 4 2 3 4 5 5 8 10 16 18 14
48 43 44 22 30 41 41 37 37 37 29 25 26 23 16 12 11 11 12 12 12 5 15 16 10 9 9 6 4 2 3 1 1 3 1 2 4 3 5 10 10 11 13 14
47 53 42 45 35 40 39 38 38 41 37 34 29 24 16 17 11 11 15 14 14 12 20 20 13 8 11 7 6 3 1 2 1 2 1 3 4 3 7 11 12 12 13 19
42 52 48 38 37 33 41 39 37 39 37 32 30 26 20 16 11 15 19 17 15 18 22 21 17 9 11 7 5 5 2 1 1 1 2 3 5 6 9 12 12 12 12 14
31 46 45 41 35 36 38 42 39 38 38 36 35 29 22 17 18 16 18 16 15 18 22 22 17 11 9 10 7 5 4 3 1 2 2 4 5 7 9 12 12 11 11 11
25 42 43 40 35 27 35 31 34 35 35 35 34 27 27 23 15 18 17 17 16 16 21 25 18 14 9 10 11 8 6 5 4 1 3 4 6 7 9 11 11 9 7 8
30 38 30 35 36 26 32 37 35 36 37 33 32 31 25 24 22 22 21 19 20 19 15 25 23 16 13 10 10 10 8 6 7 4 3 4 6 7 7 8 9 8 6 5
28 39 37 29 29 25 34 32 31 28 34 31 31 29 30 25 26 25 23 17 23 18 18 22 26 22 17 15 12 12 11 8 7 8 5 4 4 6 7 7 8 8 7 7
36 36 40 32 23 31 37 29 33 32 25 32 31 31 29 30 29 21 20 21 24 19 18 20 26 18 9 15 16 13 15 10 8 10 9 7 6 6 8 9 9 10 11 10
38 37 34 37 24 19 22 31 36 34 27 21 33 32 33 29 27 26 15 19 24 22 19 21 26 20 11 9 12 13 14 14 12 10 11 10 8 8 8 8 10 10 9 8
15 34 37 31 38 16 30 20 29 25 30 18 30 35 31 29 27 25 18 16 26 21 20 23 26 24 16 11 9 8 9 15 17 13 12 13 11 10 11 11 10 11 11 12
19 9 23 36 25 34 29 11 24 25 22 20 25 29 30 30 27 27 25 22 19 18 23 24 26 24 20 15 13 13 11 10 17 19 15 12 14 14 13 13 13 12 12 12
10 15 12 20 26 25 32 21 21 26 28 27 24 23 25 26 25 24 26 26 24 22 25 25 26 26 20 19 18 17 18 14 11 15 20 16 14 16 16 15 14 12 12 12
7 12 12 11 8 30 31 22 33 28 31 29 29 23 24 24 23 24 24 24 21 21 26 25 26 28 22 19 20 21 21 21 16 13 14 18 19 17 16 19 19 19 17 18
Wind_Direction
224 219 222 224 228 233 239 245 248 258 257 267 249 256 261 273 278 277 281 279 275 257 250 267 274 279 288 291 298 316 327 332 333 330 330 345 341 351 356 2 11 353 212 216
221 227 226 227 231 230 235 245 254 263 270 276 276 272 273 280 276 278 278 276 274 245 242 272 272 275 285 286 297 318 325 333 328 335 345 5 343 334 332 341 4 5 273 210
218 227 226 226 228 228 233 240 249 258 267 268 275 272 272 281 286 274 273 271 253 242 253 277 277 275 279 283 302 314 326 328 331 349 336 342 335 328 323 322 335 352 345 217
227 228 224 225 227 225 233 233 240 250 264 269 271 291 284 290 282 271 268 261 245 239 254 278 282 280 275 277 302 312 325 321 333 349 7 359 342 344 346 318 339 354 354 182
228 221 223 224 226 226 233 235 240 244 251 260 265 271 277 283 284 262 280 274 240 233 266 280 292 283 268 276 300 309 321 315 332 328 359 4 1 346 348 356 343 17 10 166
234 226 224 226 228 227 229 235 241 247 255 256 256 258 271 271 293 330 301 282 217 238 277 273 283 270 256 277 294 303 313 310 324 320 350 2 8 12 25 30 39 31 30 51
224 227 225 224 226 225 219 227 226 227 238 254 257 250 253 263 282 275 276 294 230 249 266 277 281 258 256 277 290 299 303 304 311 314 341 354 8 25 30 33 34 24 32 78
217 223 218 214 222 218 215 210 225 224 226 247 276 237 257 226 211 227 250 231 237 266 262 280 257 237 271 273 286 296 302 292 303 309 332 338 6 11 22 25 41 51 54 82
208 228 221 218 216 217 211 215 220 243 256 273 247 225 255 213 207 219 213 210 238 267 271 260 226 257 273 267 288 291 291 292 295 315 325 329 353 359 14 20 37 51 66 79
216 219 220 215 212 216 216 211 211 227 242 264 278 274 265 161 192 172 194 226 276 284 250 219 250 273 258 266 286 298 277 290 285 312 319 328 346 351 22 32 43 54 68 110
214 232 219 215 207 206 207 223 208 224 226 230 249 269 204 174 183 163 244 200 261 277 225 236 269 262 237 261 297 305 275 267 305 307 312 327 344 347 15 27 29 25 122 109
208 227 239 217 211 211 214 214 208 214 222 241 251 277 132 143 174 189 170 215 9 287 224 239 274 245 233 237 301 327 312 261 294 308 324 336 351 360 21 31 38 63 61 128
207 223 235 232 217 201 211 215 217 211 219 222 237 244 214 199 187 191 223 188 226 316 216 219 252 249 225 224 268 346 6 246 277 292 359 358 20 5 53 62 71 76 57 105
207 217 222 227 211 192 199 213 215 217 212 225 232 242 160 162 189 202 193 212 224 268 212 212 235 255 221 218 245 302 11 322 102 274 64 68 44 17 96 94 89 91 71 105
202 214 219 224 223 205 205 210 216 217 218 220 227 236 221 208 204 213 199 208 210 220 209 210 228 268 226 217 233 254 355 326 42 198 232 118 81 81 119 107 101 108 102 100
203 212 216 223 225 232 208 211 217 221 218 219 228 232 230 233 218 202 199 201 199 216 206 209 229 244 235 213 219 229 211 294 28 107 174 146 110 120 124 121 113 115 118 122
199 208 208 224 218 228 223 206 211 220 223 216 220 224 226 229 223 213 205 198 206 208 208 218 233 242 231 214 208 220 209 189 226 103 147 167 144 134 136 140 126 117 113 110
212 210 206 214 220 228 229 215 213 220 223 222 225 224 222 223 218 212 206 211 213 210 208 223 227 221 215 223 208 214 219 190 196 160 133 165 173 159 152 145 142 136 123 117
206 209 201 206 218 225 219 220 212 210 219 217 220 221 219 219 225 223 221 226 230 214 220 220 232 228 219 233 223 219 222 202 196 193 138 155 173 178 175 162 156 158 157 153
212 204 197 206 215 221 221 213 214 222 222 215 215 218 216 216 217 222 221 218 220 216 210 212 229 238 231 232 235 222 221 218 198 197 180 157 171 174 182 186 182 183 183 183
215 195 199 220 210 217 218 213 207 214 226 215 213 212 210 217 218 216 228 212 218 215 202 211 226 239 241 234 236 236 220 217 207 199 201 183 172 178 184 183 191 191 192 191
209 193 200 214 228 222 205 212 216 213 215 221 211 208 210 211 215 209 198 200 208 208 202 208 222 230 209 209 205 213 220 216 218 211 209 208 190 188 190 187 188 191 194 189
265 191 205 208 214 211 211 230 209 208 214 223 213 205 206 211 208 204 206 196 192 199 205 210 221 217 209 209 189 177 194 215 221 220 217 215 207 207 195 194 192 190 189 185
228 263 202 213 217 219 208 225 201 213 192 197 194 201 201 202 198 203 201 205 205 205 205 211 213 218 211 214 209 203 195 215 224 226 229 219 208 217 209 205 201 200 197 194
286 239 227 223 217 228 219 200 185 195 187 177 169 179 187 191 194 197 202 209 209 209 210 208 209 224 220 221 226 217 216 219 231 235 235 232 219 217 214 215 211 210 205 205
307 232 219 229 189 206 209 186 192 194 190 179 172 170 187 187 191 193 195 207 199 201 206 202 203 219 231 229 228 231 230 227 228 232 238 239 230 229 223 218 214 212 208 213
Height
3097 3099 3094 3099 3101 3108 3110 3108 3106 3106 3106 3112 3111 3109 3109 3111 3110 3109 3108 3108 3107 3104 3100 3100 3100 3098 3097 3095 3094 3091 3087 3083 3080 3077 3072 3069 3067 3063 3058 3053 3049 3046 3044 3045
3093 3081 3090 3096 3100 3103 3104 3105 3104 3104 3104 3105 3105 3104 3105 3106 3104 3102 3101 3102 3101 3098 3095 3096 3096 3095 3093 3092 3091 3088 3085 3082 3080 3076 3071 3069 3066 3062 3058 3055 3051 3046 3045 3044
3075 3074 3088 3091 3094 3097 3099 3100 3102 3102 3102 3103 3102 3099 3100 3099 3097 3097 3097 3095 3097 3094 3093 3093 3092 3092 3090 3089 3088 3086 3083 3081 3079 3076 3073 3069 3065 3061 3057 3054 3051 3048 3045 3044
3068 3079 3081 3084 3085 3091 3091 3096 3097 3098 3100 3099 3100 3092 3094 3095 3093 3091 3091 3090 3090 3090 3090 3089 3089 3088 3087 3087 3086 3084 3082 3080 3079 3076 3073 3069 3065 3060 3056 3053 3050 3049 3046 3045
3051 3068 3072 3074 3078 3085 3086 3091 3092 3094 3096 3096 3097 3096 3091 3090 3087 3086 3087 3087 3086 3085 3088 3086 3086 3085 3084 3084 3084 3083 3081 3079 3078 3077 3073 3070 3065 3059 3055 3053 3051 3050 3046 3046
3057 3064 3066 3068 3074 3078 3084 3086 3087 3090 3091 3088 3090 3091 3087 3085 3085 3084 3086 3084 3084 3084 3084 3083 3082 3082 3082 3082 3082 3082 3080 3079 3077 3077 3074 3071 3067 3061 3056 3054 3052 3051 3050 3048
3052 3052 3058 3064 3068 3072 3076 3080 3082 3086 3086 3082 3084 3084 3080 3081 3082 3082 3084 3085 3082 3083 3081 3080 3080 3079 3080 3080 3081 3080 3079 3078 3077 3076 3074 3072 3069 3065 3061 3058 3055 3053 3052 3050
3042 3044 3046 3051 3056 3063 3066 3073 3076 3079 3080 3077 3075 3076 3074 3076 3077 3079 3082 3084 3082 3081 3079 3078 3078 3078 3079 3079 3080 3078 3078 3078 3077 3077 3074 3073 3071 3068 3064 3062 3059 3057 3055 3053
3032 3032 3042 3046 3052 3058 3061 3065 3073 3075 3072 3071 3070 3072 3074 3072 3074 3076 3079 3080 3079 3079 3078 3077 3077 3078 3078 3078 3079 3078 3078 3077 3077 3077 3074 3073 3073 3071 3068 3066 3063 3060 3059 3057
3024 3031 3033 3038 3048 3051 3054 3063 3069 3071 3072 3072 3066 3064 3063 3068 3072 3073 3075 3077 3078 3077 3076 3077 3077 3077 3077 3077 3078 3077 3078 3077 3077 3077 3075 3074 3073 3072 3071 3068 3067 3063 3062 3061
3021 3024 3027 3031 3032 3039 3050 3052 3058 3066 3067 3067 3068 3062 3057 3063 3070 3071 3073 3074 3075 3075 3076 3076 3076 3075 3077 3077 3077 3077 3077 3077 3077 3076 3075 3075 3074 3073 3073 3071 3070 3067 3065 3065
3007 3016 3020 3019 3027 3036 3043 3047 3052 3058 3062 3061 3061 3064 3061 3065 3068 3071 3071 3071 3074 3074 3074 3075 3075 3075 3076 3077 3077 3077 3077 3077 3077 3076 3075 3075 3075 3075 3075 3075 3073 3070 3068 3069
3004 3011 3015 3016 3022 3027 3036 3043 3048 3053 3058 3058 3059 3059 3059 3062 3066 3068 3069 3069 3072 3073 3074 3074 3075 3074 3076 3076 3077 3077 3077 3077 3077 3077 3076 3076 3076 3077 3077 3077 3077 3075 3073 3072
3001 3001 3005 3005 3009 3020 3028 3035 3041 3046 3050 3055 3054 3055 3057 3061 3064 3066 3068 3067 3069 3071 3072 3074 3075 3074 3075 3076 3077 3077 3077 3077 3078 3077 3077 3077 3078 3078 3079 3079 3079 3079 3078 3077
2990 2993 3000 3005 3010 3013 3019 3027 3033 3036 3043 3047 3051 3053 3055 3059 3062 3064 3066 3066 3067 3068 3070 3073 3074 3074 3075 3076 3077 3078 3078 3077 3078 3079 3078 3078 3079 3080 3081 3082 3082 3082 3083 3082
2980 2986 2997 3001 3006 3006 3011 3017 3027 3031 3037 3043 3047 3049 3054 3057 3057 3060 3062 3064 3067 3067 3069 3072 3072 3074 3074 3075 3077 3078 3079 3078 3079 3079 3079 3080 3081 3082 3083 3085 3085 3086 3087 3088
2972 2978 2987 2992 3000 3002 3000 3007 3016 3024 3030 3035 3038 3045 3050 3052 3055 3058 3058 3061 3064 3066 3068 3069 3071 3072 3073 3075 3077 3078 3079 3079 3080 3080 3080 3081 3082 3084 3085 3087 3088 3090 3090 3091
2964 2971 2980 2989 2996 2990 2995 3004 3011 3017 3024 3029 3034 3039 3044 3048 3052 3055 3057 3058 3060 3063 3066 3068 3069 3071 3073 3074 3076 3077 3079 3079 3080 3081 3081 3082 3083 3085 3086 3089 3091 3092 3094 3095
2958 2966 2973 2979 2985 2992 2993 2997 3005 3010 3015 3022 3028 3034 3038 3044 3048 3050 3054 3057 3056 3058 3062 3065 3067 3069 3072 3074 3076 3077 3078 3079 3080 3081 3082 3082 3084 3085 3088 3090 3093 3095 3096 3098
2956 2961 2970 2975 2979 2979 2988 2995 3001 3006 3006 3016 3021 3027 3032 3038 3041 3045 3049 3052 3053 3055 3059 3062 3065 3067 3070 3072 3074 3076 3078 3079 3080 3082 3083 3084 3084 3086 3088 3091 3093 3096 3098 3099
2953 2957 2962 2968 2975 2980 2983 2990 2996 2996 3005 3009 3014 3020 3027 3031 3037 3042 3045 3048 3050 3052 3055 3059 3061 3064 3068 3070 3072 3075 3077 3079 3080 3081 3083 3084 3085 3087 3088 3090 3093 3096 3098 3100
2950 2953 2959 2967 2971 2974 2978 2986 2986 2993 3001 3003 3008 3014 3020 3027 3032 3037 3042 3045 3047 3049 3052 3055 3058 3061 3066 3067 3070 3072 3075 3078 3080 3081 3082 3084 3086 3087 3089 3090 3093 3095 3097 3100
2946 2950 2958 2962 2968 2973 2977 2981 2983 2988 2996 2999 3003 3008 3015 3021 3027 3032 3037 3040 3043 3046 3049 3052 3054 3058 3063 3067 3069 3071 3074 3076 3079 3080 3081 3083 3086 3088 3089 3091 3093 3095 3097 3099
2945 2947 2952 2963 2966 2971 2976 2979 2980 2986 2992 2995 2998 3003 3010 3016 3022 3028 3033 3036 3039 3043 3047 3049 3051 3054 3060 3065 3067 3070 3072 3074 3076 3079 3081 3082 3085 3087 3090 3091 3093 3096 3098 3100
2948 2941 2944 2949 2962 2967 2974 2975 2978 2986 2989 2990 2994 3000 3005 3012 3018 3023 3028 3032 3035 3040 3043 3046 3049 3050 3056 3061 3064 3067 3070 3072 3074 3076 3078 3081 3084 3085 3088 3091 3094 3096 3098 3100
2936 2946 2951 2954 2955 2963 2968 2972 2974 2983 2983 2985 2987 2995 3001 3008 3013 3018 3024 3027 3031 3035 3039 3042 3047 3049 3052 3056 3060 3064 3067 3069 3072 3074 3076 3078 3081 3084 3086 3088 3091 3093 3096 3097